Weather History for Poplar Bluff, MO

Change the Weather History Date:

Wednesday, November 21, 2012

  Actual Average Record
Temperature  
Mean Temperature 52 °F -  
Max Temperature 66 °F 56 °F 77 °F (1943)
Min Temperature 39 °F 34 °F 10 °F (1937)
Degree Days  
Heating Degree Days 12    
Growing Degree Days 2 (Base 50)    
Moisture  
Dew Point 43 °F    
Average Humidity 80    
Maximum Humidity 100    
Minimum Humidity 52    
Precipitation  
Precipitation 0.00 in - - ()
Sea Level Pressure  
Sea Level Pressure 30.22 in    
Wind  
Wind Speed 2 mph (SW)    
Max Wind Speed 7 mph    
Max Gust Speed -    
Visibility 5 miles    
Events      
Averages and records for this station are not official NWS values.
T = Trace of Precipitation, MM = Missing Value Source: NWS Daily Summary

Daily Weather History Graph

Daily Weather History Graph

Search for Another Location

Airport:

Trip Planner

Search our weather history database for the weather conditions in past years. The results will help you decide how hot, cold, wet, or windy it might be!

Date:

Astronomy

Nov. 21, 2012 Rise Set
Actual Time 6:46 AM CST 4:48 PM CST
Civil Twilight 6:18 AM CST 5:16 PM CST
Nautical Twilight 5:46 AM CST 5:47 PM CST
Astronomical Twilight 5:15 AM CST 6:18 PM CST
Moon 12:56 PM CST 12:14 AM CST
Length of Visible Light 10h 58m
Length of Day
10h 02m
First Quarter, 62% of the Moon is Illuminated
Nov 21
First Quarter
Nov 28
Full
Dec 6
Last Quarter
Dec 13
New
Dec 19
First Quarter

Hourly Weather History & Observations

Time (CST) Temp. Windchill Dew Point Humidity Pressure Visibility Wind Dir Wind Speed Gust Speed Precip Events Conditions
12:53 AM 48.9 °F - 42.1 °F 77% 30.18 in 8.0 mi NNW 3.5 mph - N/A   Clear
1:53 AM 50.0 °F - 44.1 °F 80% 30.19 in 8.0 mi Calm Calm - N/A   Clear
2:53 AM 45.0 °F 43.5 °F 41.0 °F 86% 30.20 in 8.0 mi NW 3.5 mph - N/A   Clear
3:53 AM 43.0 °F 41.3 °F 39.9 °F 89% 30.20 in 7.0 mi NW 3.5 mph - N/A   Clear
4:53 AM 44.1 °F - 41.0 °F 89% 30.22 in 5.0 mi Calm Calm - N/A   Clear
5:53 AM 43.0 °F - 39.9 °F 89% 30.24 in 4.0 mi Calm Calm - N/A   Clear
6:42 AM 41.0 °F 39.0 °F 39.2 °F 93% 30.25 in 2.0 mi NW 3.5 mph - N/A   Clear
6:50 AM 39.2 °F - 37.4 °F 93% 30.26 in 1.5 mi Calm Calm - N/A   Clear
6:53 AM 39.9 °F - 37.9 °F 93% 30.26 in 1.5 mi Calm Calm - N/A   Clear
7:36 AM 42.8 °F - 42.8 °F 100% 30.25 in 3.0 mi Calm Calm - N/A   Clear
7:53 AM 46.0 °F - 44.1 °F 93% 30.26 in 2.5 mi Calm Calm - N/A   Clear
8:17 AM 48.2 °F - 44.6 °F 87% 30.27 in 3.0 mi NW 3.5 mph - N/A   Clear
8:53 AM 52.0 °F - 46.9 °F 83% 30.28 in 4.0 mi WNW 3.5 mph - N/A   Haze
9:53 AM 59.0 °F - 48.9 °F 69% 30.29 in 5.0 mi NNW 3.5 mph - N/A   Haze
10:53 AM 63.0 °F - 50.0 °F 63% 30.28 in 6.0 mi Calm Calm - N/A   Haze
11:53 AM 64.9 °F - 48.0 °F 54% 30.26 in 8.0 mi Calm Calm - N/A   Clear
12:53 PM 66.0 °F - 48.0 °F 52% 30.23 in 8.0 mi Calm Calm - N/A   Clear
1:53 PM 66.0 °F - 48.0 °F 52% 30.21 in 8.0 mi SSE 4.6 mph - N/A   Clear
2:53 PM 66.0 °F - 48.0 °F 52% 30.20 in 8.0 mi South 3.5 mph - N/A   Clear
3:53 PM 64.0 °F - 48.9 °F 58% 30.20 in 8.0 mi SSE 6.9 mph - N/A   Clear
4:53 PM 60.1 °F - 48.0 °F 64% 30.20 in 7.0 mi SSE 3.5 mph - N/A   Clear
5:53 PM 55.0 °F - 46.9 °F 74% 30.21 in 7.0 mi South 3.5 mph - N/A   Clear
6:53 PM 53.1 °F - 46.9 °F 80% 30.21 in 7.0 mi SSE 3.5 mph - N/A   Clear
7:53 PM 53.1 °F - 46.0 °F 77% 30.19 in 7.0 mi SSE 3.5 mph - N/A   Clear
8:53 PM 45.0 °F - 42.1 °F 90% 30.21 in 5.0 mi Calm Calm - N/A   Clear
9:53 PM 44.1 °F - 41.0 °F 89% 30.20 in 4.0 mi Calm Calm - N/A   Clear
10:25 PM 44.6 °F - 41.0 °F 87% 30.19 in 1.8 mi Calm Calm - N/A   Clear
10:53 PM 42.1 °F - 39.9 °F 92% 30.19 in 3.0 mi Calm Calm - N/A   Clear
11:10 PM 42.8 °F - 39.2 °F 87% 30.19 in 2.0 mi Calm Calm - N/A   Clear
11:19 PM 42.8 °F - 39.2 °F 87% 30.19 in 1.2 mi Calm Calm - N/A   Clear
11:38 PM 41.0 °F - 37.4 °F 87% 30.19 in 4.0 mi Calm Calm - N/A   Clear
11:53 PM 42.1 °F - 39.0 °F 89% 30.19 in 4.0 mi Calm Calm - N/A   Partly Cloudy